Voltar ao catálogo

KSM1-D

AtivoCiênciaVLEO
NORAD 46907·PAYLOAD·🇱🇺 Luxembourg

Lançado Nov 7, 2020 de Satish Dhawan Space Centre

Loading…

Próximas Passagens (próximas 24 horas)

TLE

AtualizadoSource: Space-Track

Época: Sep 14, 2026, 09:12 UTC

1 46907U 20081C   26257.38381192  .00006249  00000-0  24218-3 0  9995
2 46907  36.8950 238.5239 0004247 263.2395  96.7871 15.25831015322723

Acompanhe KSM1-D em tempo real com AllMySat

Download on the App Store